User: anonymous
Location: Unspecified
(0.0000°N, 0.0000°E)
Time: 01:45:10
(UTC+02:00)
Language:

SeaSat 1 - Orbit

View from above orbital plane
View from above orbital plane
View from above satellite
View from above satellite

Ground track
Ground track

The orbit data is extracted from the following two-line orbital elements,

1 10967U 78064A   14260.80752119  .00000225  00000-0  10761-3 0  3805
2 10967 107.9904 004.3451 0002413 249.6485 259.7396 14.43076565901833
Epoch (UTC): 17 September 2014 19:22:49
Eccentricity: 0.0002413
inclination: 107.9904°
perigee height: 746 km
apogee height: 750 km
right ascension of ascending node: 4.3451°
argument of perigee: 249.6485°
revolutions per day: 14.43076565
mean anomaly at epoch: 259.7396°
orbit number at epoch: 90183

The dashed part of the orbit path shows where the satellite is in the earth's shadow,  

DLR